{"data":{"norad_id":59950,"epoch":"2026-09-21T18:55:48.238464Z","epoch_age_seconds":66242,"freshness":"FRESH","line1":"1 59950U 24107F   26264.78875276 -.00000736  00000+0 -12161-5 0  9995","line2":"2 59950  53.1587   4.7075 0001186  64.2611 295.8529 15.69707362132943","mean_motion":15.69707362,"eccentricity":0.0001186,"inclination_deg":53.1587,"raan_deg":4.7075,"arg_perigee_deg":64.2611,"mean_anomaly_deg":295.8529,"bstar":-1.2161e-6,"rev_number":13294,"period_min":91.736844386412,"perigee_km":358.93518784048,"apogee_km":360.53341091269,"semimajor_km":6737.8712993766,"source":"CELESTRAK","updated_at":"2026-09-22T09:00:49.116492Z"}}